Weather History for Monett, MO

Change the Weather History Date:

Sunday, February 17, 2013

  Actual Average (KJLN) Record (KJLN)
Temperature  
Mean Temperature 47 °F 40 °F  
Max Temperature 62 °F 51 °F 74 °F (2011)
Min Temperature 32 °F 30 °F 4 °F (1993)
Degree Days  
Heating Degree Days 18 25  
Month to date heating degree days 455  
Since 1 July heating degree days 3004  
Cooling Degree Days 0 0  
Month to date cooling degree days 0  
Year to date cooling degree days 0  
Moisture  
Dew Point 26 °F    
Average Humidity 45    
Maximum Humidity 60    
Minimum Humidity 27    
Precipitation  
Precipitation 0.00 in 0.09 in 0.63 in (1961)
Month to date precipitation 1.31  
Year to date precipitation 3.34  
Sea Level Pressure  
Sea Level Pressure 29.94 in    
Wind  
Wind Speed 10 mph (South)    
Max Wind Speed 22 mph    
Max Gust Speed 29 mph    
Visibility 10 miles    
Events      
T = Trace of Precipitation, MM = Missing Value Source: NWS Daily Summary

Daily Weather History Graph

Daily Weather History Graph

Search for Another Location

Airport:

Trip Planner

Search our weather history database for the weather conditions in past years. The results will help you decide how hot, cold, wet, or windy it might be!

Date:

Astronomy

Feb. 17, 2013 Rise Set
Actual Time 7:01 AM CST 5:58 PM CST
Civil Twilight 6:35 AM CST 6:25 PM CST
Nautical Twilight 6:05 AM CST 6:55 PM CST
Astronomical Twilight 5:35 AM CST 7:25 PM CST
Moon 11:07 AM CST (2/17) 12:43 AM CST (2/17)
Length of Visible Light 11h 49m
Length of Day
10h 56m
Waxing Crescent, 49% of the Moon is Illuminated
Feb 17
Waxing Crescent
Feb 17
First Quarter
Feb 25
Full
Mar 4
Last Quarter
Mar 11
New

Hourly Weather History & Observations

Time (CST) Temp. Windchill Dew Point Humidity Pressure Visibility Wind Dir Wind Speed Gust Speed Precip Events Conditions
12:15 AM 33.8 °F 26.4 °F 21.2 °F 60% 30.10 in 10.0 mi South 9.2 mph - N/A   Overcast
12:35 AM 33.8 °F 27.7 °F 19.4 °F 56% 30.09 in 10.0 mi SSE 6.9 mph - N/A   Overcast
12:55 AM 33.8 °F 27.0 °F 19.4 °F 56% 30.09 in 10.0 mi SSE 8.1 mph - N/A   Overcast
1:15 AM 33.8 °F 27.0 °F 19.4 °F 56% 30.08 in 10.0 mi SSE 8.1 mph - N/A   Overcast
1:35 AM 33.8 °F 27.7 °F 19.4 °F 56% 30.08 in 10.0 mi SSE 6.9 mph - N/A   Overcast
1:55 AM 33.8 °F 28.6 °F 19.4 °F 56% 30.08 in 10.0 mi SSE 5.8 mph - N/A   Overcast
2:15 AM 33.8 °F 26.4 °F 19.4 °F 56% 30.07 in 10.0 mi South 9.2 mph - N/A   Overcast
2:35 AM 33.8 °F 27.0 °F 17.6 °F 52% 30.06 in 10.0 mi SSE 8.1 mph - N/A   Mostly Cloudy
2:55 AM 32.0 °F 24.2 °F 17.6 °F 55% 30.05 in 10.0 mi SE 9.2 mph - N/A   Clear
3:15 AM 32.0 °F 24.8 °F 19.4 °F 60% 30.05 in 10.0 mi SE 8.1 mph - N/A   Clear
3:35 AM 32.0 °F 25.6 °F 19.4 °F 60% 30.05 in 10.0 mi SSE 6.9 mph - N/A   Clear
3:55 AM 32.0 °F 25.6 °F 19.4 °F 60% 30.04 in 10.0 mi SSE 6.9 mph - N/A   Clear
4:15 AM 32.0 °F 25.6 °F 19.4 °F 60% 30.04 in 10.0 mi SSE 6.9 mph - N/A   Clear
4:35 AM 32.0 °F 25.6 °F 19.4 °F 60% 30.04 in 10.0 mi South 6.9 mph - N/A   Clear
4:55 AM 32.0 °F 26.4 °F 17.6 °F 55% 30.04 in 10.0 mi SSE 5.8 mph - N/A   Clear
5:15 AM 32.0 °F 25.6 °F 17.6 °F 55% 30.05 in 10.0 mi South 6.9 mph - N/A   Clear
5:35 AM 32.0 °F 26.4 °F 17.6 °F 55% 30.05 in 10.0 mi South 5.8 mph - N/A   Clear
5:55 AM 32.0 °F 26.4 °F 17.6 °F 55% 30.05 in 10.0 mi South 5.8 mph - N/A   Clear
6:15 AM 32.0 °F 26.4 °F 17.6 °F 55% 30.05 in 10.0 mi South 5.8 mph - N/A   Clear
6:35 AM 32.0 °F 26.4 °F 19.4 °F 60% 30.05 in 10.0 mi South 5.8 mph - N/A   Clear
6:55 AM 32.0 °F 26.4 °F 19.4 °F 60% 30.04 in 10.0 mi South 5.8 mph - N/A   Clear
7:15 AM 32.0 °F 26.4 °F 19.4 °F 60% 30.04 in 10.0 mi South 5.8 mph - N/A   Clear
7:55 AM 35.6 °F 28.6 °F 19.4 °F 52% 30.04 in 10.0 mi South 9.2 mph - N/A   Clear
8:15 AM 37.4 °F 30.3 °F 21.2 °F 52% 30.04 in 10.0 mi South 10.4 mph - N/A   Clear
8:35 AM 39.2 °F 31.6 °F 21.2 °F 49% 30.04 in 10.0 mi South 12.7 mph - N/A   Clear
8:55 AM 41.0 °F 33.1 °F 23.0 °F 49% 30.03 in 10.0 mi South 15.0 mph - N/A   Clear
9:35 AM 44.6 °F 38.4 °F 26.6 °F 49% 30.03 in 10.0 mi South 12.7 mph - N/A   Clear
9:55 AM 46.4 °F 41.1 °F 26.6 °F 46% 30.02 in 10.0 mi South 11.5 mph 17.3 mph N/A   Clear
10:15 AM 50.0 °F - 26.6 °F 40% 30.01 in 10.0 mi South 13.8 mph - N/A   Clear
10:35 AM 50.0 °F - 26.6 °F 40% 30.00 in 10.0 mi SSW 13.8 mph - N/A   Clear
10:55 AM 51.8 °F - 28.4 °F 41% 30.00 in 10.0 mi South 16.1 mph - N/A   Clear
11:15 AM 53.6 °F - 28.4 °F 38% 30.00 in 10.0 mi South 16.1 mph - N/A   Clear
11:35 AM 53.6 °F - 28.4 °F 38% 29.99 in 10.0 mi South 13.8 mph - N/A   Clear
11:55 AM 55.4 °F - 30.2 °F 38% 29.97 in 10.0 mi South 12.7 mph - N/A   Clear
12:15 PM 57.2 °F - 30.2 °F 36% 29.96 in 10.0 mi South 15.0 mph - N/A   Clear
12:55 PM 59.0 °F - 30.2 °F 34% 29.93 in 10.0 mi SSE 15.0 mph - N/A   Clear
1:15 PM 59.0 °F - 28.4 °F 31% 29.91 in 10.0 mi SSW 10.4 mph 19.6 mph N/A   Clear
1:35 PM 60.8 °F - 30.2 °F 31% 29.91 in 10.0 mi South 15.0 mph 19.6 mph N/A   Clear
1:55 PM 60.8 °F - 30.2 °F 31% 29.89 in 10.0 mi South 16.1 mph - N/A   Clear
2:15 PM 62.6 °F - 30.2 °F 30% 29.89 in 10.0 mi South 12.7 mph 19.6 mph N/A   Clear
2:35 PM 62.6 °F - 30.2 °F 30% 29.88 in 10.0 mi SSW 18.4 mph 23.0 mph N/A   Clear
2:55 PM 62.6 °F - 30.2 °F 30% 29.87 in 10.0 mi South 13.8 mph 21.9 mph N/A   Clear
3:15 PM 62.6 °F - 30.2 °F 30% 29.87 in 10.0 mi SSW 13.8 mph 19.6 mph N/A   Clear
3:35 PM 62.6 °F - 30.2 °F 30% 29.86 in 10.0 mi SSW 16.1 mph 23.0 mph N/A   Clear
3:55 PM 62.6 °F - 30.2 °F 30% 29.86 in 10.0 mi SSW 15.0 mph - N/A   Clear
4:15 PM 62.6 °F - 28.4 °F 27% 29.86 in 10.0 mi South 16.1 mph - N/A   Clear
4:35 PM 60.8 °F - 28.4 °F 29% 29.85 in 10.0 mi SSW 15.0 mph 24.2 mph N/A   Clear
4:55 PM 60.8 °F - 30.2 °F 31% 29.84 in 10.0 mi SSW 15.0 mph - N/A   Clear
5:15 PM 60.8 °F - 30.2 °F 31% 29.84 in 10.0 mi South 16.1 mph - N/A   Clear
5:35 PM 59.0 °F - 30.2 °F 34% 29.84 in 10.0 mi South 13.8 mph - N/A   Clear
5:55 PM 57.2 °F - 30.2 °F 36% 29.84 in 10.0 mi South 11.5 mph - N/A   Clear
6:15 PM 53.6 °F - 30.2 °F 41% 29.84 in 10.0 mi South 9.2 mph - N/A   Clear
6:35 PM 55.4 °F - 30.2 °F 38% 29.84 in 10.0 mi South 11.5 mph - N/A   Clear
6:55 PM 53.6 °F - 30.2 °F 41% 29.84 in 10.0 mi SSE 9.2 mph - N/A   Clear
7:15 PM 51.8 °F - 30.2 °F 44% 29.84 in 10.0 mi SSE 11.5 mph - N/A   Clear
7:35 PM 51.8 °F - 30.2 °F 44% 29.84 in 10.0 mi SSE 11.5 mph - N/A   Clear
7:55 PM 51.8 °F - 30.2 °F 44% 29.83 in 10.0 mi SSE 12.7 mph - N/A   Clear
8:15 PM 51.8 °F - 30.2 °F 44% 29.83 in 10.0 mi SSE 12.7 mph - N/A   Clear
8:35 PM 51.8 °F - 30.2 °F 44% 29.82 in 10.0 mi SSE 13.8 mph 19.6 mph N/A   Clear
8:55 PM 51.8 °F - 30.2 °F 44% 29.82 in 10.0 mi SSE 11.5 mph - N/A   Clear
9:15 PM 50.0 °F - 32.0 °F 50% 29.82 in 10.0 mi SSE 12.7 mph 19.6 mph N/A   Clear
9:35 PM 50.0 °F - 32.0 °F 50% 29.82 in 10.0 mi South 12.7 mph - N/A   Clear
9:55 PM 50.0 °F - 32.0 °F 50% 29.82 in 10.0 mi South 11.5 mph - N/A   Clear
10:15 PM 51.8 °F - 32.0 °F 47% 29.81 in 10.0 mi South 16.1 mph 25.3 mph N/A   Clear
10:35 PM 51.8 °F - 32.0 °F 47% 29.81 in 10.0 mi South 13.8 mph 20.7 mph N/A   Clear
10:55 PM 51.8 °F - 32.0 °F 47% 29.81 in 10.0 mi South 13.8 mph - N/A   Clear
11:15 PM 51.8 °F - 32.0 °F 47% 29.80 in 10.0 mi South 17.3 mph 21.9 mph N/A   Clear
11:35 PM 51.8 °F - 32.0 °F 47% 29.79 in 10.0 mi South 19.6 mph 28.8 mph N/A   Clear
11:55 PM 51.8 °F - 32.0 °F 47% 29.79 in 10.0 mi South 21.9 mph 25.3 mph N/A   Clear